Hot Springs, VA

7:35 PM EDT on April 24, 2017 (GMT -0400)
Ingalls

Weather History for KHSP - August, 2013

Change the Weather History Date:

Friday, August 30, 2013

  Actual Average Record
Temperature  
Mean Temperature 66 °F -  
Max Temperature 73 °F 72 °F 82 °F (1998)
Min Temperature 60 °F 58 °F 46 °F (1999)
Cooling Degree Days 2    
Growing Degree Days 16 (Base 50)    
Moisture  
Dew Point 65 °F    
Average Humidity 94    
Maximum Humidity 100    
Minimum Humidity 78    
Precipitation  
Precipitation 0.00 in - - ()
Sea Level Pressure  
Sea Level Pressure 30.18 in    
Wind  
Wind Speed 5 mph (South)    
Max Wind Speed 10 mph    
Max Gust Speed -    
Visibility 6 miles    
Events Fog    
Averages and records for this station are not official NWS values.
T = Trace of Precipitation, MM = Missing Value Source: NWS Daily Summary

Daily Weather History Graph

Daily Weather History Graph

Search for Another Location

Airport or City:

Trip Planner

Search our weather history database for the weather conditions in past years. The results will help you decide how hot, cold, wet, or windy it might be!

Date:

Astronomy

Aug. 30, 2013 Rise Set
Actual Time 6:47 AM EDT 7:51 PM EDT
Civil Twilight 6:20 AM EDT 8:18 PM EDT
Nautical Twilight 5:48 AM EDT 8:50 PM EDT
Astronomical Twilight 5:15 AM EDT 9:23 PM EDT
Moon 1:27 AM EDT (8/30) 4:02 PM EDT (8/30)
Length of Visible Light 13h 57m
Length of Day
13h 03m
Waning Crescent, 29% of the Moon is Illuminated
Aug 30
Waning Crescent
Sep 5
New
Sep 12
First Quarter
Sep 19
Full
Sep 26
Last Quarter

Hourly Weather History & Observations

Time (EDT) Temp. Dew Point Humidity Pressure Visibility Wind Dir Wind Speed Gust Speed Precip Events Conditions
12:15 AM 64.4 °F 64.4 °F 100% 30.22 in 0.2 mi East 6.9 mph - N/A Fog Fog
12:35 AM 64.4 °F 64.4 °F 100% 30.22 in 0.2 mi East 6.9 mph - N/A Fog Fog
12:55 AM 64.4 °F 64.4 °F 100% 30.22 in 0.2 mi ESE 4.6 mph - N/A Fog Fog
1:15 AM 64.4 °F 64.4 °F 100% 30.22 in 0.2 mi East 3.5 mph - N/A Fog Fog
1:55 AM 64.4 °F 64.4 °F 100% 30.21 in 0.2 mi Calm Calm - N/A Fog Fog
2:15 AM 64.4 °F 64.4 °F 100% 30.21 in 0.5 mi Calm Calm - N/A Fog Fog
2:35 AM 64.4 °F 64.4 °F 100% 30.21 in 0.2 mi SSE 4.6 mph - N/A Fog Fog
2:55 AM 62.6 °F 62.6 °F 100% 30.21 in 0.5 mi South 4.6 mph - N/A Fog Fog
3:15 AM 62.6 °F 62.6 °F 100% 30.21 in 0.2 mi SSE 4.6 mph - N/A Fog Fog
3:35 AM 62.6 °F 62.6 °F 100% 30.21 in 0.2 mi SE 3.5 mph - N/A Fog Fog
3:55 AM 62.6 °F 62.6 °F 100% 30.21 in 0.2 mi South 5.8 mph - N/A Fog Fog
4:15 AM 62.6 °F 62.6 °F 100% 30.21 in 0.5 mi South 4.6 mph - N/A Fog Fog
4:35 AM 62.6 °F 62.6 °F 100% 30.21 in 2.5 mi SW 3.5 mph - N/A   Mostly Cloudy
4:55 AM 60.8 °F 60.8 °F 100% 30.20 in 5.0 mi Calm Calm - N/A   Scattered Clouds
5:15 AM 60.8 °F 60.8 °F 100% 30.20 in 7.0 mi Calm Calm - N/A   Clear
5:35 AM 60.8 °F 60.8 °F 100% 30.20 in 4.0 mi South 4.6 mph - N/A   Scattered Clouds
5:55 AM 60.8 °F 60.8 °F 100% 30.21 in 2.5 mi South 4.6 mph - N/A   Mostly Cloudy
6:15 AM 62.6 °F 62.6 °F 100% 30.21 in 2.5 mi South 3.5 mph - N/A   Mostly Cloudy
6:35 AM 62.6 °F 62.6 °F 100% 30.21 in 0.2 mi South 3.5 mph - N/A Fog Fog
6:55 AM 62.6 °F 62.6 °F 100% 30.21 in 1.0 mi SSW 5.8 mph - N/A   Overcast
7:15 AM 62.6 °F 62.6 °F 100% 30.21 in 1.2 mi South 5.8 mph - N/A   Overcast
7:35 AM 62.6 °F 62.6 °F 100% 30.22 in 1.2 mi SSW 6.9 mph - N/A   Overcast
7:55 AM 62.6 °F 62.6 °F 100% 30.22 in 2.0 mi SSW 6.9 mph - N/A   Mostly Cloudy
8:15 AM 64.4 °F 62.6 °F 94% 30.22 in 7.0 mi SSW 5.8 mph - N/A   Clear
8:35 AM 64.4 °F 64.4 °F 100% 30.22 in 2.5 mi South 3.5 mph - N/A   Mostly Cloudy
8:55 AM 64.4 °F 64.4 °F 100% 30.22 in 5.0 mi South 4.6 mph - N/A   Mostly Cloudy
10:15 AM 66.2 °F 64.4 °F 94% 30.23 in 4.0 mi South 5.8 mph - N/A   Mostly Cloudy
10:35 AM 66.2 °F 64.4 °F 94% 30.23 in 4.0 mi Calm Calm - N/A   Overcast
10:55 AM 66.2 °F 64.4 °F 94% 30.23 in 4.0 mi SSE 6.9 mph - N/A   Overcast
11:15 AM 69.8 °F 64.4 °F 83% 30.23 in 10.0 mi SSE 6.9 mph - N/A   Overcast
11:35 AM 68.0 °F 64.4 °F 88% 30.23 in 7.0 mi South 6.9 mph - N/A   Mostly Cloudy
11:55 AM 66.2 °F 64.4 °F 94% 30.23 in 5.0 mi SSW 5.8 mph - N/A   Overcast
12:15 PM 68.0 °F 64.4 °F 88% 30.22 in 7.0 mi Calm Calm - N/A   Mostly Cloudy
12:35 PM 69.8 °F 64.4 °F 83% 30.21 in 10.0 mi WSW 5.8 mph - N/A   Overcast
12:55 PM 69.8 °F 64.4 °F 83% 30.21 in 10.0 mi WSW 6.9 mph - N/A   Mostly Cloudy
1:15 PM 69.8 °F 64.4 °F 83% 30.20 in 10.0 mi SSW 5.8 mph - N/A   Overcast
1:35 PM 69.8 °F 66.2 °F 88% 30.20 in 7.0 mi South 5.8 mph - N/A   Mostly Cloudy
1:55 PM 71.6 °F 66.2 °F 83% 30.19 in 7.0 mi South 6.9 mph - N/A   Scattered Clouds
2:15 PM 71.6 °F 66.2 °F 83% 30.19 in 5.0 mi SSE 5.8 mph - N/A   Mostly Cloudy
2:35 PM 71.6 °F 66.2 °F 83% 30.19 in 7.0 mi SSW 4.6 mph - N/A   Mostly Cloudy
2:55 PM 71.6 °F 66.2 °F 83% 30.18 in 10.0 mi SSW 5.8 mph - N/A   Mostly Cloudy
3:15 PM 71.6 °F 66.2 °F 83% 30.17 in 7.0 mi SSE 6.9 mph - N/A   Mostly Cloudy
3:35 PM 71.6 °F 66.2 °F 83% 30.17 in 7.0 mi South 6.9 mph - N/A   Mostly Cloudy
3:55 PM 71.6 °F 66.2 °F 83% 30.16 in 10.0 mi South 8.1 mph - N/A   Mostly Cloudy
4:15 PM 71.6 °F 66.2 °F 83% 30.16 in 10.0 mi South 5.8 mph - N/A   Mostly Cloudy
4:35 PM 71.6 °F 68.0 °F 88% 30.16 in 7.0 mi SE 3.5 mph - N/A   Mostly Cloudy
4:55 PM 73.4 °F 66.2 °F 78% 30.15 in 10.0 mi South 6.9 mph - N/A   Mostly Cloudy
5:15 PM 73.4 °F 68.0 °F 83% 30.15 in 10.0 mi South 4.6 mph - N/A   Scattered Clouds
5:35 PM 71.6 °F 68.0 °F 88% 30.15 in 10.0 mi South 4.6 mph - N/A   Scattered Clouds
5:55 PM 71.6 °F 66.2 °F 83% 30.14 in 10.0 mi South 5.8 mph - N/A   Clear
6:15 PM 71.6 °F 68.0 °F 88% 30.14 in 7.0 mi South 8.1 mph - N/A   Clear
6:35 PM 69.8 °F 68.0 °F 94% 30.14 in 7.0 mi South 6.9 mph - N/A   Clear
6:55 PM 69.8 °F 66.2 °F 88% 30.13 in 10.0 mi South 5.8 mph - N/A   Clear
7:15 PM 69.8 °F 66.2 °F 88% 30.13 in 7.0 mi SSW 5.8 mph - N/A   Clear
7:35 PM 68.0 °F 66.2 °F 94% 30.13 in 7.0 mi South 5.8 mph - N/A   Clear
7:55 PM 66.2 °F 66.2 °F 100% 30.13 in 7.0 mi South 6.9 mph - N/A   Clear
8:15 PM 66.2 °F 66.2 °F 100% 30.13 in 7.0 mi South 8.1 mph - N/A   Unknown
8:35 PM 66.2 °F 66.2 °F 100% 30.13 in 7.0 mi South 9.2 mph - N/A   Clear
8:55 PM 66.2 °F 66.2 °F 100% 30.13 in 5.0 mi South 10.4 mph - N/A   Clear
9:15 PM 66.2 °F 66.2 °F 100% 30.13 in 7.0 mi South 10.4 mph - N/A   Clear
9:35 PM 66.2 °F 66.2 °F 100% 30.13 in 5.0 mi SSW 9.2 mph - N/A   Clear
9:55 PM 66.2 °F 66.2 °F 100% 30.13 in 4.0 mi South 9.2 mph - N/A   Scattered Clouds
10:15 PM 66.2 °F 66.2 °F 100% 30.13 in 7.0 mi SSW 6.9 mph - N/A   Scattered Clouds
10:35 PM 66.2 °F 64.4 °F 94% 30.13 in 10.0 mi SW 6.9 mph - N/A   Clear
10:55 PM 66.2 °F 64.4 °F 94% 30.13 in 10.0 mi SSW 8.1 mph - N/A   Clear
11:15 PM 66.2 °F 64.4 °F 94% 30.14 in 10.0 mi SW 9.2 mph - N/A   Clear
11:35 PM 66.2 °F 64.4 °F 94% 30.14 in 10.0 mi SW 6.9 mph - N/A   Clear
11:55 PM 66.2 °F 64.4 °F 94% 30.14 in 10.0 mi SW 8.1 mph - N/A   Scattered Clouds